DW9945 Weather Reports


time (UTC)temp
C
wind
direction
speed
KPH
gust
KPH
rain 1hr
cm
rain 24hr
cm
rain mn
cm
humidity
%
barometer
mb
20260504184508 14 294 9.7 19.3 0.00 0.00 0.00 59 1011.7
20260504183507 15 311 11.3 19.3 0.00 0.00 0.00 57 1011.6
20260504183007 15 321 14.5 22.5 0.00 0.00 0.00 55 1011.6
20260504182506 15 317 17.7 22.5 0.00 0.00 0.00 54 1011.5
20260504182006 15 317 17.7 27.4 0.00 0.00 0.00 55 1011.4
20260504181508 16 320 19.3 27.4 0.00 0.00 0.00 53 1011.4
20260504181007 16 321 19.3 24.1 0.00 0.00 0.00 53 1011.3
20260504180507 16 321 17.7 27.4 0.00 0.00 0.00 54 1011.3
20260504180008 16 318 17.7 24.1 0.00 0.00 0.00 52 1011.2
20260504175506 16 312 20.9 29.0 0.00 0.00 0.00 51 1011.1
20260504174507 16 285 17.7 25.7 0.00 0.00 0.00 51 1011.2
20260504174007 16 328 14.5 24.1 0.00 0.00 0.00 51 1011.1
20260504173507 17 306 16.1 22.5 0.00 0.00 0.00 51 1011.2
20260504173007 17 296 14.5 24.1 0.00 0.00 0.00 53 1011.0
20260504172007 17 311 20.9 29.0 0.00 0.00 0.00 50 1011.0
20260504171507 17 314 17.7 24.1 0.00 0.00 0.00 49 1011.0
20260504151007 19 245 14.5 29.0 0.00 0.00 0.00 35 1010.7
20260504150506 19 226 14.5 27.4 0.00 0.00 0.00 35 1010.7
20260504141007 20 236 12.9 22.5 0.00 0.00 0.00 37 1011.0
20260504130507 18 226 11.3 32.2 0.00 0.00 0.00 43 1011.2
20260504100508 15 233 3.2 14.5 0.00 0.00 0.00 63 1012.6
20260504082007 11 163 4.8 9.7 0.00 0.00 0.00 81 1012.7
20260504081508 11 196 4.8 9.7 0.00 0.00 0.00 81 1012.8
20260504080508 11 188 8.0 12.9 0.00 0.00 0.00 81 1012.7
20260504050508 10 142 0.0 3.2 0.00 0.33 0.00 82 1011.4
20260504050008 10 192 0.0 3.2 0.00 0.33 0.00 82 1011.4
20260504045507 10 191 3.2 4.8 0.00 0.33 0.00 83 1011.3
20260504045007 10 194 0.0 0.0 0.00 0.33 0.00 84 1011.3
20260504044007 10 323 0.0 0.0 0.00 0.33 0.00 85 1011.4
20260504043508 9 323 0.0 0.0 0.00 0.33 0.00 85 1011.4
20260504043008 9 323 0.0 0.0 0.00 0.33 0.00 84 1011.4
20260504042507 10 323 0.0 0.0 0.00 0.33 0.00 84 1011.4
20260504042008 10 323 0.0 0.0 0.00 0.33 0.00 83 1011.4
20260504041508 10 323 0.0 0.0 0.00 0.33 0.00 83 1011.4
20260504040508 10 323 0.0 0.0 0.00 0.33 0.00 83 1011.4
20260504040008 10 323 0.0 0.0 0.00 0.33 0.00 82 1011.5
20260504035508 10 323 0.0 0.0 0.00 0.33 0.00 81 1011.5
20260504035007 10 323 0.0 0.0 0.00 0.33 0.00 82 1011.4
20260504034508 10 323 0.0 0.0 0.00 0.33 0.00 82 1011.5
20260504034007 10 323 0.0 0.0 0.00 0.33 0.00 81 1011.5
20260504033507 10 323 0.0 0.0 0.00 0.33 0.00 81 1011.5
20260504033007 10 323 0.0 0.0 0.00 0.33 0.00 81 1011.5
20260504032508 10 323 0.0 0.0 0.00 0.33 0.00 80 1011.6
20260504032008 10 323 0.0 0.0 0.00 0.33 0.00 79 1011.5
20260504031508 10 323 0.0 0.0 0.00 0.33 0.00 79 1011.6
20260504031008 10 323 0.0 0.0 0.00 0.33 0.00 79 1011.6
20260504030508 10 323 0.0 0.0 0.00 0.33 0.00 79 1011.6
20260504025507 11 323 0.0 0.0 0.00 0.33 0.00 77 1011.6
20260504025008 11 323 0.0 0.0 0.00 0.33 0.00 77 1011.6
20260504024507 11 323 0.0 0.0 0.00 0.33 0.00 77 1011.5
20260504024007 11 323 0.0 0.0 0.00 0.33 0.00 77 1011.5
20260504023508 11 323 0.0 0.0 0.00 0.33 0.00 78 1011.5
20260504023008 11 323 0.0 0.0 0.00 0.33 0.00 79 1011.5
20260504022508 11 323 0.0 0.0 0.00 0.33 0.00 79 1011.5
20260504022007 11 323 0.0 0.0 0.00 0.33 0.00 79 1011.5
20260504021008 11 323 0.0 0.0 0.00 0.33 0.00 78 1011.6
20260504020508 11 323 0.0 0.0 0.00 0.33 0.00 77 1011.5
20260504020008 12 323 0.0 0.0 0.00 0.33 0.00 75 1011.5
20260504015507 12 248 0.0 0.0 0.00 0.33 0.00 73 1011.5
20260504015008 13 190 0.0 3.2 0.00 0.33 0.00 72 1011.5
20260504014507 13 189 1.6 4.8 0.00 0.33 0.00 70 1011.5
20260504014007 13 190 1.6 4.8 0.00 0.33 0.00 70 1011.6
20260504013008 13 190 4.8 8.0 0.00 0.33 0.00 69 1011.6
20260504012008 12 286 1.6 4.8 0.00 0.33 0.00 71 1011.6
20260504011508 12 286 0.0 1.6 0.00 0.33 0.00 71 1011.7
20260504011007 12 286 0.0 3.2 0.00 0.33 0.00 70 1011.8
20260504010509 12 286 0.0 0.0 0.00 0.33 0.00 71 1011.7
20260504010008 12 286 0.0 0.0 0.00 0.33 0.00 71 1011.8
20260504005507 12 286 0.0 0.0 0.00 0.33 0.00 71 1011.7
20260504005007 12 286 0.0 0.0 0.00 0.33 0.00 72 1011.7
20260504004508 12 286 0.0 0.0 0.00 0.33 0.00 72 1011.8
20260504004007 12 286 0.0 0.0 0.00 0.33 0.00 73 1011.9
20260504003507 12 286 0.0 0.0 0.00 0.33 0.00 72 1011.9
20260504003008 13 286 0.0 0.0 0.00 0.33 0.00 73 1011.9
20260504002507 13 286 0.0 4.8 0.00 0.33 0.00 72 1012.0
20260504002007 13 279 4.8 9.7 0.00 0.33 0.00 71 1012.1
20260504001508 13 283 8.0 12.9 0.00 0.33 0.00 70 1012.0
20260504001007 14 221 3.2 4.8 0.00 0.33 0.00 66 1012.0
20260504000507 14 210 1.6 4.8 0.00 0.33 0.00 67 1012.1
20260504000009 14 220 0.0 4.8 0.00 0.33 0.00 66 1012.1
20260503235511 14 216 3.2 4.8 0.00 0.33 0.00 66 1012.0
20260503234007 14 209 0.0 4.8 0.00 0.33 0.00 65 1012.1
20260503233508 15 209 1.6 4.8 0.00 0.33 0.00 64 1012.2
20260503232511 15 197 1.6 4.8 0.00 0.33 0.00 63 1012.1
20260503232007 15 188 3.2 8.0 0.00 0.33 0.00 64 1012.3
20260503231007 14 184 3.2 4.8 0.00 0.33 0.00 65 1012.3
20260503230507 14 184 3.2 4.8 0.00 0.33 0.00 64 1012.3
20260503230008 14 223 0.0 1.6 0.00 0.33 0.00 65 1012.2
20260503225008 14 232 0.0 4.8 0.00 0.33 0.00 66 1012.5
20260503224007 14 238 1.6 4.8 0.00 0.33 0.00 67 1012.4
20260503223507 14 223 0.0 3.2 0.00 0.33 0.00 68 1012.4
20260503223007 14 213 0.0 1.6 0.00 0.33 0.00 68 1012.4
20260503222507 14 181 0.0 1.6 0.00 0.33 0.00 67 1012.4
20260503222007 15 172 0.0 0.0 0.00 0.38 0.00 67 1012.3
20260503221508 15 172 0.0 0.0 0.00 0.43 0.00 64 1012.4
20260503215507 15 172 3.2 4.8 0.00 0.43 0.43 63 1012.5
20260503215007 15 195 3.2 4.8 0.00 0.43 0.43 62 1012.5
20260503214508 15 199 4.8 4.8 0.00 0.43 0.43 63 1012.5
20260503214007 14 205 3.2 4.8 0.00 0.43 0.43 65 1012.5
20260503213007 14 274 0.0 0.0 0.00 0.43 0.43 69 1012.4
20260503212507 14 290 0.0 0.0 0.00 0.43 0.43 68 1012.4
20260503212007 14 290 0.0 0.0 0.00 0.43 0.43 68 1012.4
20260503211507 14 290 0.0 0.0 0.00 0.43 0.43 68 1012.3
20260503211008 15 290 0.0 3.2 0.00 0.43 0.43 68 1012.3
20260503210508 15 249 1.6 4.8 0.00 0.43 0.43 63 1012.4
20260503205007 15 245 3.2 4.8 0.00 0.43 0.43 61 1012.2
20260503204507 15 207 1.6 4.8 0.00 0.43 0.43 61 1012.0
20260503204006 15 230 3.2 4.8 0.00 0.43 0.43 61 1012.0
20260503203508 15 222 3.2 9.7 0.00 0.43 0.43 62 1011.9
20260503203007 16 244 1.6 8.0 0.00 0.43 0.43 63 1011.8
20260503202507 16 235 1.6 8.0 0.00 0.43 0.43 62 1011.6
20260503202006 16 238 3.2 12.9 0.00 0.43 0.43 62 1011.5
20260503201507 15 220 4.8 12.9 0.00 0.43 0.43 62 1011.5
20260503201007 15 224 8.0 14.5 0.00 0.43 0.43 63 1011.5
20260503200507 15 267 1.6 4.8 0.00 0.43 0.43 65 1011.5
20260503200007 15 252 3.2 9.7 0.00 0.43 0.43 65 1011.5
20260503195007 15 270 3.2 12.9 0.00 0.43 0.43 65 1011.4
20260503194508 16 257 4.8 11.3 0.00 0.43 0.43 65 1011.4
20260503193507 16 235 8.0 12.9 0.00 0.43 0.43 64 1011.2
20260503193008 16 247 8.0 11.3 0.00 0.43 0.43 64 1011.2
20260503192507 16 241 8.0 14.5 0.00 0.43 0.43 64 1011.1
20260503192007 16 241 6.4 14.5 0.00 0.43 0.43 64 1011.1
20260503191507 16 240 6.4 12.9 0.00 0.43 0.43 63 1011.0
20260503191006 16 258 8.0 12.9 0.00 0.43 0.43 64 1010.9
20260503190507 16 283 1.6 4.8 0.00 0.43 0.43 67 1010.8
20260503190008 16 264 1.6 4.8 0.00 0.43 0.43 66 1010.8
20260503185507 16 282 3.2 11.3 0.00 0.43 0.43 65 1010.7
20260503185007 16 287 1.6 11.3 0.00 0.43 0.43 64 1010.7